Spokane Fairchild, WA
on Friday, November 23, 2012

Friday
Previous Day Next Day
Daily Summary
 ActualAverage (KGEG)Record (KGEG)
Temperature
Mean Temperature °F 33°F  
Max Temperature 44°F 38°F 60°F (1933)
Min Temperature 31°F 28°F -21°F (1985)
Degree Days
Heating Degree Days 28 32  
Month to date heating degree days 643  
Since 1 July heating degree days 1431  
Cooling Degree Days 0 0  
Month to date cooling degree days 0  
Year to date cooling degree days 450  
Moisture
Dew Point 38°F   
Average Humidity 95    
Maximum Humidity 100    
Minimum Humidity 76    
Precipitation
Precipitation 0.17 in 0.07 in 0.77 in (1892)
Month to date precipitation 1.71  
Year to date precipitation 13.67  
Snow
Snow 0.00 in 0.30 in 6.60 in (1955)
Month to date snowfall 4.7  
Since 1 July snowfall 4.8  
Since 1 September snowfall 4.8  
Snow Depth in   
Wind
Wind Speed 9 mph   
Max Wind Speed 20 mph   
Max Gust Speed 28 mph   
Visibility 10 miles   
Events Rain   

Key: T is trace of precipitation, MM is missing value
Source: NWS Daily Summary
Time(PST)TemperatureDew PointHumidity Pressure Visibility Wind DirectionWind SpeedGust SpeedPrecipitationEvents Conditions
12:58 AM 32.5°F 32.5°F 100% 30.39 in 10.0 miles ENE 8.1 mph - N/A   Overcast
1:58 AM 33.3°F 33.3°F 100% 30.38 in 10.0 miles NE 9.2 mph - N/A   Overcast
2:58 AM 32.9°F 32.9°F 100% 30.37 in 10.0 miles NE 2.3 mph - N/A   Mostly Cloudy
3:58 AM 32.5°F 32.5°F 100% 30.35 in 10.0 miles East 5.8 mph - N/A   Mostly Cloudy
4:58 AM 31.6°F 31.6°F 100% 30.35 in 10.0 miles NNE 9.2 mph - N/A   Scattered Clouds
5:58 AM 31.6°F 31.6°F 100% 30.32 in 10.0 miles ENE 6.9 mph - N/A   Clear
6:22 AM 32.0°F 32.0°F 100% 30.25 in 10.0 miles ENE 6.9 mph - N/A   Scattered Clouds
6:46 AM 32.0°F 32.0°F 100% 30.24 in 10.0 miles NNE 5.8 mph - N/A   Partly Cloudy
6:58 AM 31.6°F 31.6°F 100% 30.32 in 10.0 miles NNE 5.8 mph - 0.00 in   Partly Cloudy
7:58 AM 32.7°F 32.7°F 100% 30.31 in 10.0 miles NE 6.9 mph - N/A   Scattered Clouds
8:58 AM 34.5°F 34.5°F 100% 30.30 in 10.0 miles East 4.6 mph - N/A   Mostly Cloudy
9:33 AM 35.6°F 35.6°F 100% 30.22 in 10.0 miles NE 4.6 mph - N/A   Scattered Clouds
9:58 AM 36.9°F 36.9°F 100% 30.28 in 10.0 miles East 5.8 mph - 0.00 in   Mostly Cloudy
10:15 AM 39.2°F 35.6°F 87% 30.21 in 10.0 miles ESE 4.6 mph - N/A   Mostly Cloudy
10:58 AM 39.9°F 36.0°F 86% 30.27 in 10.0 miles Variable 4.6 mph - 0.00 in   Mostly Cloudy
11:58 AM 42.1°F 36.0°F 79% 30.26 in 10.0 miles SE 5.8 mph - N/A   Mostly Cloudy
12:20 PM 42.8°F 35.6°F 76% 30.19 in 10.0 miles SE 3.5 mph - N/A   Scattered Clouds
12:55 PM 42.8°F 39.2°F 87% 30.18 in 10.0 miles SSE 5.8 mph - N/A   Mostly Cloudy
12:58 PM 42.8°F 39.2°F 87% 30.24 in 10.0 miles SE 4.6 mph - 0.00 in   Mostly Cloudy
1:01 PM 42.8°F 37.4°F 81% 30.18 in 10.0 miles SE 5.8 mph - N/A Rain Light Rain
1:12 PM 42.8°F 39.2°F 87% 30.17 in 10.0 miles SE 8.1 mph - N/A   Scattered Clouds
1:19 PM 42.8°F 39.2°F 87% 30.17 in 10.0 miles SSE 8.1 mph - N/A Rain Light Rain
1:36 PM 42.8°F 37.4°F 81% 30.15 in 10.0 miles SE 9.2 mph - N/A   Partly Cloudy
1:43 PM 44.6°F 37.4°F 76% 30.15 in 10.0 miles SSE 9.2 mph - N/A Rain Light Rain
1:58 PM 43.5°F 38.1°F 81% 30.20 in 10.0 miles SSE 9.2 mph - 0.00 in Rain Light Rain
2:43 PM 42.8°F 37.4°F 81% 30.13 in 10.0 miles SSE 11.5 mph - N/A   Overcast
2:58 PM 43.2°F 37.9°F 82% 30.19 in 10.0 miles South 12.7 mph - 0.00 in   Overcast
3:01 PM 42.8°F 37.4°F 81% 30.13 in 10.0 miles South 11.5 mph - N/A   Light Drizzle
3:58 PM 41.9°F 41.7°F 99% 30.17 in 10.0 miles South 9.2 mph - 0.00 in Rain Light Rain
4:58 PM 40.1°F 40.1°F 100% 30.14 in 10.0 miles South 10.4 mph - 0.01 in Rain Light Rain
5:33 PM 39.2°F 39.2°F 100% 30.08 in 10.0 miles South 9.2 mph - N/A Rain Light Rain
5:38 PM 39.2°F 39.2°F 100% 30.08 in 10.0 miles South 8.1 mph - N/A Rain Light Rain
5:58 PM 39.7°F 39.7°F 100% 30.14 in 10.0 miles South 8.1 mph - 0.03 in Rain Light Rain
6:58 PM 39.4°F 39.4°F 100% 30.14 in 10.0 miles South 5.8 mph - 0.05 in Rain Light Rain
7:58 PM 39.2°F 39.2°F 100% 30.11 in 10.0 miles South 13.8 mph - 0.03 in Rain Light Rain
8:05 PM 39.2°F 39.2°F 100% 30.04 in 10.0 miles South 16.1 mph - N/A   Overcast
8:42 PM 39.2°F 39.2°F 100% 30.03 in 10.0 miles South 16.1 mph - N/A Rain Light Rain
8:58 PM 39.7°F 39.7°F 100% 30.08 in 10.0 miles South 16.1 mph - 0.01 in Rain Light Rain
9:28 PM 41.0°F 41.0°F 100% 30.01 in 10.0 miles South 15.0 mph 23.0 mph N/A Rain Light Rain
9:58 PM 40.5°F 40.5°F 100% 30.06 in 10.0 miles South 18.4 mph - 0.01 in Rain Light Rain
10:23 PM 41.0°F 41.0°F 100% 30.02 in 10.0 miles SSW 17.3 mph 24.2 mph N/A Rain Light Rain
10:33 PM 41.0°F 41.0°F 100% 30.02 in 10.0 miles SSW 15.0 mph 25.3 mph N/A Rain Light Rain
10:58 PM 41.0°F 41.0°F 100% 30.06 in 10.0 miles SSW 19.6 mph 25.3 mph 0.02 in   Overcast
11:04 PM 41.0°F 41.0°F 100% 30.01 in 10.0 miles South 19.6 mph 27.6 mph N/A   Overcast
11:09 PM 41.0°F 41.0°F 100% 30.01 in 10.0 miles South 19.6 mph 27.6 mph N/A   Overcast
11:14 PM 41.0°F 41.0°F 100% 30.02 in 10.0 miles SSW 18.4 mph 27.6 mph N/A Rain Light Rain
11:19 PM 41.0°F 41.0°F 100% 30.02 in 10.0 miles SSW 17.3 mph 23.0 mph N/A Rain Light Rain
11:39 PM 41.0°F 41.0°F 100% 30.02 in 10.0 miles SSW 16.1 mph 21.9 mph N/A Rain Light Rain
11:58 PM 40.6°F 40.6°F 100% 30.06 in 10.0 miles SSW 18.4 mph 27.6 mph 0.01 in Rain Light Rain
Moon Phase
Nov. 23 Nov. 28 Dec. 06 Dec. 13 Dec. 20
Sunrise:07:08 AM (PST) Moon Rise:01:37 PM (PST)11/23
Sunset:04:05 PM (PST) Moon Set:02:15 AM (PST)11/23

Copyright © 2014 The Weather Underground, Inc.